User: anonymous   Login
Location: Favalello
(42.2939°N, 9.2706°E)
Time: 00:24:37
(UTC+00:00)
Language:

CSL-04 Debris - Orbit

View from above orbital plane
View from above orbital plane
View from above satellite
View from above satellite

Ground track
Ground track

The orbit data is extracted from the following two-line orbital elements,

1 25733U 99025D   20047.57888553 +.00000062 +00000-0 +53910-4 0  9997
2 25733 098.9620 075.0925 0013974 311.1133 048.8833 14.16335086072449
Epoch (UTC): 16 February 2020 13:53:35
Eccentricity: 0.0013974
inclination: 98.9620°
perigee height: 827 km
apogee height: 848 km
right ascension of ascending node: 75.0925°
argument of perigee: 311.1133°
revolutions per day: 14.16335086
mean anomaly at epoch: 48.8833°
orbit number at epoch: 7244

The dashed part of the orbit path shows where the satellite is in the earth's shadow,  

DLR